| time (UTC) | temp F | wind direction | speed MPH | gust MPH | rain 1hr in | rain 24hr in | rain mn in | humidity % | barometer mb |
| 20260509091028 | 69 | 195 | 1.0 | 3.0 | 0.00 | 0.36 | 0.00 | 61 | 1016.1 |
| 20260509090043 | 69 | 203 | 1.0 | 2.0 | 0.00 | 0.36 | 0.00 | 63 | 1016.0 |
| 20260509085037 | 69 | 182 | 1.0 | 2.0 | 0.00 | 0.36 | 0.00 | 66 | 1016.1 |
| 20260509084031 | 68 | 195 | 1.0 | 2.0 | 0.00 | 0.36 | 0.00 | 70 | 1016.1 |
| 20260509083025 | 67 | 178 | 1.0 | 3.0 | 0.00 | 0.36 | 0.00 | 71 | 1016.1 |
| 20260509082040 | 66 | 192 | 1.0 | 3.0 | 0.00 | 0.36 | 0.00 | 72 | 1016.1 |
| 20260509081035 | 66 | 194 | 1.0 | 2.0 | 0.00 | 0.36 | 0.00 | 72 | 1016.0 |
| 20260509080029 | 66 | 174 | 0.0 | 2.0 | 0.00 | 0.36 | 0.00 | 72 | 1016.1 |
| 20260509075044 | 64 | 180 | 0.0 | 1.0 | 0.00 | 0.36 | 0.00 | 76 | 1016.3 |
| 20260509074019 | 63 | 203 | 1.0 | 3.0 | 0.00 | 0.36 | 0.00 | 79 | 1016.2 |
| 20260509073033 | 62 | 202 | 1.0 | 2.0 | 0.00 | 0.36 | 0.00 | 81 | 1016.3 |
| 20260509072028 | 61 | 154 | 1.0 | 2.0 | 0.00 | 0.36 | 0.00 | 82 | 1016.3 |
| 20260509071023 | 61 | 205 | 0.0 | 1.0 | 0.00 | 0.36 | 0.00 | 83 | 1016.3 |
| 20260509070037 | 60 | 166 | 0.0 | 1.0 | 0.00 | 0.36 | 0.00 | 83 | 1016.5 |
| 20260509065055 | 60 | 198 | 0.0 | 1.0 | 0.00 | 0.36 | 0.00 | 85 | 1016.4 |
| 20260509064029 | 59 | 214 | 0.0 | 1.0 | 0.00 | 0.36 | 0.00 | 85 | 1016.4 |
| 20260509063023 | 59 | 207 | 0.0 | 1.0 | 0.00 | 0.36 | 0.00 | 85 | 1016.5 |
| 20260509062018 | 58 | 151 | 0.0 | 1.0 | 0.00 | 0.36 | 0.00 | 86 | 1016.4 |
| 20260509061033 | 57 | 191 | 0.0 | 1.0 | 0.00 | 0.36 | 0.00 | 89 | 1016.5 |
| 20260509060027 | 57 | 0.0 | 0.0 | 0.00 | 0.36 | 0.00 | 91 | 1016.6 | |
| 20260509055022 | 56 | 0.0 | 0.0 | 0.00 | 0.36 | 0.00 | 92 | 1016.7 | |
| 20260509054016 | 55 | 0.0 | 0.0 | 0.00 | 0.36 | 0.00 | 93 | 1016.6 | |
| 20260509053031 | 55 | 0.0 | 0.0 | 0.00 | 0.36 | 0.00 | 94 | 1016.6 | |
| 20260509052045 | 55 | 27 | 0.0 | 1.0 | 0.00 | 0.36 | 0.00 | 93 | 1016.7 |
| 20260509051020 | 55 | 351 | 0.0 | 1.0 | 0.00 | 0.36 | 0.00 | 92 | 1016.6 |
| 20260509050035 | 55 | 0.0 | 0.0 | 0.00 | 0.36 | 0.00 | 91 | 1016.3 | |
| 20260509045028 | 55 | 0.0 | 0.0 | 0.00 | 0.36 | 0.00 | 91 | 1016.3 | |
| 20260509044028 | 55 | 46 | 0.0 | 1.0 | 0.00 | 0.36 | 0.00 | 90 | 1016.2 |
| 20260509043017 | 55 | 40 | 0.0 | 1.0 | 0.00 | 0.36 | 0.00 | 91 | 1016.1 |
| 20260509042032 | 55 | 0.0 | 0.0 | 0.00 | 0.36 | 0.00 | 91 | 1016.1 | |
| 20260509041027 | 54 | 0.0 | 0.0 | 0.00 | 0.36 | 0.00 | 92 | 1016.0 | |
| 20260509040021 | 54 | 29 | 0.0 | 1.0 | 0.00 | 0.36 | 0.00 | 93 | 1015.9 |
| 20260509035036 | 54 | 0.0 | 0.0 | 0.00 | 0.36 | 0.00 | 92 | 1015.8 | |
| 20260509034031 | 54 | 0.0 | 0.0 | 0.00 | 0.36 | 0.00 | 91 | 1015.8 | |
| 20260509033026 | 55 | 22 | 0.0 | 1.0 | 0.00 | 0.36 | 0.00 | 90 | 1015.7 |
| 20260509032021 | 54 | 32 | 0.0 | 1.0 | 0.00 | 0.36 | 0.00 | 92 | 1015.5 |
| 20260509031035 | 54 | 20 | 1.0 | 1.0 | 0.00 | 0.36 | 0.00 | 93 | 1015.5 |
| 20260509030030 | 54 | 0.0 | 0.0 | 0.00 | 0.36 | 0.00 | 93 | 1015.6 | |
| 20260509025024 | 54 | 0.0 | 0.0 | 0.00 | 0.36 | 0.00 | 92 | 1015.5 | |
| 20260509024100 | 55 | 26 | 0.0 | 1.0 | 0.00 | 0.36 | 0.00 | 92 | 1015.5 |
| 20260509023034 | 55 | 13 | 0.0 | 1.0 | 0.00 | 0.36 | 0.00 | 91 | 1015.6 |
| 20260509022028 | 55 | 0.0 | 0.0 | 0.00 | 0.36 | 0.00 | 90 | 1015.6 | |
| 20260509021024 | 56 | 0.0 | 0.0 | 0.00 | 0.36 | 0.00 | 88 | 1015.5 | |
| 20260509020023 | 57 | 56 | 0.0 | 1.0 | 0.00 | 0.36 | 0.00 | 87 | 1015.6 |
| 20260509015054 | 57 | 17 | 0.0 | 1.0 | 0.00 | 0.36 | 0.00 | 88 | 1015.5 |
| 20260509014027 | 58 | 25 | 0.0 | 1.0 | 0.00 | 0.36 | 0.00 | 86 | 1015.6 |
| 20260509013021 | 57 | 28 | 0.0 | 1.0 | 0.00 | 0.36 | 0.00 | 88 | 1015.6 |
| 20260509012019 | 57 | 22 | 0.0 | 1.0 | 0.00 | 0.36 | 0.00 | 90 | 1015.5 |
| 20260509011031 | 57 | 0.0 | 0.0 | 0.00 | 0.36 | 0.00 | 90 | 1015.5 | |
| 20260509010026 | 57 | 0.0 | 0.0 | 0.00 | 0.36 | 0.00 | 89 | 1015.3 | |
| 20260509005021 | 56 | 26 | 1.0 | 1.0 | 0.00 | 0.36 | 0.00 | 89 | 1015.3 |
| 20260509004035 | 56 | 16 | 0.0 | 1.0 | 0.00 | 0.36 | 0.00 | 91 | 1015.1 |
| 20260509003050 | 55 | 25 | 0.0 | 1.0 | 0.00 | 0.36 | 0.00 | 91 | 1015.2 |
| 20260509002024 | 56 | 0.0 | 0.0 | 0.00 | 0.36 | 0.00 | 90 | 1015.3 | |
| 20260509000033 | 56 | 0.0 | 0.0 | 0.00 | 0.36 | 0.00 | 90 | 1015.2 | |
| 20260508235027 | 56 | 23 | 0.0 | 1.0 | 0.00 | 0.36 | 0.00 | 90 | 1015.0 |
| 20260508234022 | 56 | 9 | 1.0 | 1.0 | 0.00 | 0.36 | 0.00 | 92 | 1015.2 |
| 20260508233037 | 55 | 11 | 1.0 | 1.0 | 0.00 | 0.36 | 0.00 | 94 | 1015.3 |
| 20260508232031 | 55 | 358 | 1.0 | 2.0 | 0.00 | 0.36 | 0.00 | 95 | 1015.4 |
| 20260508231027 | 55 | 10 | 0.0 | 1.0 | 0.00 | 0.36 | 0.00 | 95 | 1015.3 |
| 20260508230041 | 55 | 11 | 1.0 | 2.0 | 0.00 | 0.36 | 0.00 | 95 | 1015.2 |
| 20260508225035 | 55 | 0.0 | 0.0 | 0.00 | 0.36 | 0.00 | 95 | 1015.3 | |
| 20260508224031 | 55 | 0.0 | 0.0 | 0.00 | 0.36 | 0.00 | 95 | 1015.2 | |
| 20260508223024 | 55 | 0.0 | 0.0 | 0.00 | 0.36 | 0.00 | 95 | 1015.1 | |
| 20260508222019 | 56 | 0.0 | 0.0 | 0.00 | 0.36 | 0.00 | 95 | 1015.1 | |
| 20260508221033 | 56 | 0.0 | 0.0 | 0.00 | 0.36 | 0.00 | 95 | 1015.1 | |
| 20260508220028 | 55 | 0.0 | 0.0 | 0.00 | 0.36 | 0.36 | 96 | 1015.0 | |
| 20260508215022 | 55 | 0.0 | 0.0 | 0.00 | 0.36 | 0.36 | 96 | 1015.0 | |
| 20260508214017 | 55 | 0.0 | 0.0 | 0.00 | 0.36 | 0.36 | 96 | 1015.1 | |
| 20260508213033 | 55 | 0.0 | 0.0 | 0.00 | 0.36 | 0.36 | 96 | 1015.0 | |
| 20260508212048 | 56 | 0.0 | 0.0 | 0.00 | 0.36 | 0.36 | 96 | 1015.1 | |
| 20260508211022 | 56 | 0.0 | 0.0 | 0.00 | 0.36 | 0.36 | 96 | 1015.0 | |
| 20260508210037 | 56 | 0.0 | 0.0 | 0.00 | 0.36 | 0.36 | 96 | 1015.2 | |
| 20260508205033 | 56 | 0.0 | 0.0 | 0.00 | 0.36 | 0.36 | 96 | 1015.0 | |
| 20260508204027 | 56 | 0.0 | 0.0 | 0.00 | 0.36 | 0.36 | 97 | 1015.2 | |
| 20260508203022 | 56 | 0.0 | 0.0 | 0.00 | 0.36 | 0.36 | 97 | 1015.1 | |
| 20260508202017 | 57 | 85 | 0.0 | 1.0 | 0.00 | 0.36 | 0.36 | 98 | 1015.1 |
| 20260508201033 | 57 | 0.0 | 0.0 | 0.00 | 0.36 | 0.36 | 98 | 1015.1 | |
| 20260508200027 | 57 | 95 | 0.0 | 1.0 | 0.00 | 0.36 | 0.36 | 98 | 1014.9 |
| 20260508195025 | 57 | 0.0 | 0.0 | 0.00 | 0.36 | 0.36 | 98 | 1014.7 | |
| 20260508194018 | 57 | 0.0 | 0.0 | 0.00 | 0.36 | 0.36 | 98 | 1014.8 | |
| 20260508193034 | 57 | 0.0 | 0.0 | 0.00 | 0.36 | 0.36 | 98 | 1014.6 | |
| 20260508192028 | 57 | 180 | 0.0 | 1.0 | 0.00 | 0.36 | 0.36 | 98 | 1014.5 |
| 20260508191022 | 57 | 0.0 | 0.0 | 0.00 | 0.36 | 0.36 | 97 | 1014.4 | |
| 20260508190017 | 57 | 0.0 | 0.0 | 0.00 | 0.36 | 0.36 | 97 | 1014.3 | |
| 20260508185032 | 58 | 203 | 0.0 | 1.0 | 0.00 | 0.36 | 0.36 | 97 | 1014.1 |
| 20260508184027 | 58 | 354 | 0.0 | 1.0 | 0.00 | 0.36 | 0.36 | 97 | 1014.0 |
| 20260508183042 | 58 | 0.0 | 0.0 | 0.00 | 0.36 | 0.36 | 96 | 1013.9 | |
| 20260508182017 | 58 | 191 | 1.0 | 1.0 | 0.00 | 0.36 | 0.36 | 96 | 1013.7 |
| 20260508181112 | 58 | 0.0 | 0.0 | 0.00 | 0.36 | 0.36 | 95 | 1013.6 | |
| 20260508180046 | 58 | 0.0 | 0.0 | 0.00 | 0.36 | 0.36 | 95 | 1013.5 | |
| 20260508175021 | 58 | 0.0 | 0.0 | 0.00 | 0.36 | 0.36 | 94 | 1013.2 | |
| 20260508174020 | 59 | 206 | 0.0 | 1.0 | 0.00 | 0.36 | 0.36 | 93 | 1013.3 |
| 20260508173034 | 59 | 0.0 | 0.0 | 0.00 | 0.36 | 0.36 | 92 | 1013.3 | |
| 20260508172027 | 59 | 0.0 | 0.0 | 0.00 | 0.36 | 0.36 | 92 | 1013.2 | |
| 20260508171021 | 59 | 199 | 0.0 | 2.0 | 0.00 | 0.36 | 0.36 | 91 | 1013.2 |
| 20260508170056 | 60 | 173 | 0.0 | 1.0 | 0.00 | 0.36 | 0.36 | 90 | 1013.1 |
| 20260508165031 | 61 | 172 | 0.0 | 1.0 | 0.00 | 0.36 | 0.36 | 89 | 1013.0 |
| 20260508164025 | 61 | 0.0 | 0.0 | 0.00 | 0.36 | 0.36 | 85 | 1013.1 | |
| 20260508163020 | 60 | 24 | 1.0 | 3.0 | 0.00 | 0.36 | 0.36 | 84 | 1013.0 |
| 20260508162035 | 60 | 10 | 1.0 | 2.0 | 0.00 | 0.36 | 0.36 | 85 | 1012.7 |
| 20260508161049 | 61 | 274 | 0.0 | 2.0 | 0.00 | 0.36 | 0.36 | 86 | 1012.6 |
| 20260508160024 | 61 | 259 | 0.0 | 1.0 | 0.00 | 0.36 | 0.36 | 86 | 1012.6 |
| 20260508155018 | 61 | 21 | 1.0 | 3.0 | 0.00 | 0.36 | 0.36 | 86 | 1012.5 |
| 20260508154033 | 61 | 351 | 0.0 | 1.0 | 0.00 | 0.36 | 0.36 | 88 | 1012.5 |
| 20260508153027 | 61 | 312 | 0.0 | 2.0 | 0.00 | 0.36 | 0.36 | 88 | 1012.5 |
| 20260508152021 | 61 | 345 | 1.0 | 3.0 | 0.00 | 0.36 | 0.36 | 87 | 1012.5 |
| 20260508151036 | 62 | 294 | 0.0 | 1.0 | 0.00 | 0.36 | 0.36 | 86 | 1012.4 |
| 20260508150030 | 62 | 286 | 1.0 | 3.0 | 0.00 | 0.36 | 0.36 | 83 | 1012.2 |
| 20260508145024 | 63 | 264 | 1.0 | 4.0 | 0.00 | 0.36 | 0.36 | 82 | 1012.1 |
| 20260508144019 | 64 | 309 | 1.0 | 2.0 | 0.00 | 0.36 | 0.36 | 82 | 1012.1 |
| 20260508143033 | 64 | 250 | 1.0 | 3.0 | 0.00 | 0.36 | 0.36 | 82 | 1012.1 |
| 20260508142028 | 64 | 240 | 1.0 | 2.0 | 0.00 | 0.36 | 0.36 | 85 | 1012.2 |
| 20260508141043 | 63 | 224 | 1.0 | 2.0 | 0.00 | 0.36 | 0.36 | 86 | 1012.2 |
| 20260508140017 | 61 | 287 | 1.0 | 3.0 | 0.00 | 0.36 | 0.36 | 90 | 1012.2 |
| 20260508135031 | 58 | 207 | 0.0 | 1.0 | 0.00 | 0.36 | 0.36 | 92 | 1012.4 |
| 20260508134028 | 58 | 0.0 | 0.0 | 0.00 | 0.36 | 0.36 | 94 | 1012.3 | |
| 20260508133020 | 59 | 260 | 0.0 | 1.0 | 0.01 | 0.36 | 0.36 | 95 | 1012.6 |
| 20260508132034 | 58 | 192 | 0.0 | 1.0 | 0.02 | 0.36 | 0.36 | 95 | 1012.6 |
| 20260508131030 | 59 | 340 | 0.0 | 1.0 | 0.06 | 0.36 | 0.36 | 95 | 1012.5 |
| 20260508130024 | 58 | 160 | 0.0 | 1.0 | 0.18 | 0.36 | 0.36 | 94 | 1012.6 |
| 20260508125019 | 59 | 222 | 0.0 | 1.0 | 0.21 | 0.36 | 0.36 | 95 | 1012.5 |
| 20260508124034 | 59 | 240 | 0.0 | 1.0 | 0.24 | 0.36 | 0.36 | 96 | 1012.4 |
| 20260508123028 | 58 | 4 | 0.0 | 1.0 | 0.27 | 0.35 | 0.35 | 96 | 1012.6 |
| 20260508122023 | 57 | 298 | 0.0 | 2.0 | 0.28 | 0.34 | 0.34 | 95 | 1012.6 |
| 20260508121017 | 58 | 2 | 0.0 | 1.0 | 0.24 | 0.30 | 0.30 | 95 | 1012.7 |
| 20260508120031 | 57 | 14 | 1.0 | 2.0 | 0.13 | 0.18 | 0.18 | 94 | 1012.6 |
| 20260508115046 | 57 | 129 | 0.0 | 2.0 | 0.15 | 0.15 | 0.15 | 93 | 1012.5 |
| 20260508114021 | 57 | 41 | 0.0 | 1.0 | 0.12 | 0.12 | 0.12 | 93 | 1012.3 |
| 20260508113055 | 58 | 358 | 1.0 | 2.0 | 0.08 | 0.08 | 0.08 | 92 | 1012.1 |
| 20260508112029 | 58 | 9 | 0.0 | 1.0 | 0.06 | 0.06 | 0.06 | 91 | 1012.0 |
| 20260508111025 | 59 | 230 | 0.0 | 2.0 | 0.06 | 0.06 | 0.06 | 89 | 1012.0 |
| 20260508110019 | 61 | 180 | 2.0 | 4.0 | 0.05 | 0.05 | 0.05 | 82 | 1011.8 |
| 20260508105036 | 64 | 222 | 3.0 | 7.0 | 0.00 | 0.00 | 0.00 | 75 | 1011.6 |
| 20260508104029 | 64 | 359 | 2.0 | 6.0 | 0.00 | 0.00 | 0.00 | 77 | 1011.4 |
| 20260508103023 | 64 | 326 | 1.0 | 4.0 | 0.00 | 0.00 | 0.00 | 77 | 1011.5 |
| 20260508102057 | 64 | 348 | 1.0 | 3.0 | 0.00 | 0.00 | 0.00 | 78 | 1011.5 |
| 20260508101054 | 65 | 24 | 2.0 | 4.0 | 0.00 | 0.00 | 0.00 | 75 | 1011.4 |
| 20260508100027 | 67 | 4 | 2.0 | 7.0 | 0.00 | 0.00 | 0.00 | 73 | 1011.1 |
| 20260508095021 | 69 | 7 | 2.0 | 9.0 | 0.00 | 0.00 | 0.00 | 68 | 1011.2 |
| 20260508094036 | 70 | 359 | 2.0 | 6.0 | 0.00 | 0.00 | 0.00 | 66 | 1011.1 |
| 20260508093030 | 70 | 335 | 1.0 | 3.0 | 0.00 | 0.00 | 0.00 | 68 | 1011.1 |
| 20260508092024 | 69 | 334 | 2.0 | 7.0 | 0.00 | 0.00 | 0.00 | 69 | 1011.2 |